KD7TTL Weather Reports


Display with metric or nautical units.
time (UTC)temp
F
wind
direction
speed
MPH
gust
MPH
rain 1hr
in
rain 24hr
in
rain mn
in
humidity
%
barometer
mb
20260504224527 77 157 2.0 8.0 0.00 0.00 0.00 44 1011.2
20260504224006 77 74 2.0 8.0 0.00 0.00 0.00 44 1011.3
20260504223508 77 178 1.0 7.0 0.00 0.00 0.00 44 1011.2
20260504223022 77 188 4.0 9.0 0.00 0.00 0.00 43 1011.3
20260504222508 77 164 3.0 9.0 0.00 0.00 0.00 44 1011.3
20260504222011 78 157 2.0 8.0 0.00 0.00 0.00 44 1011.3
20260504221524 78 156 3.0 7.0 0.00 0.00 0.00 40 1011.3
20260504220503 78 120 1.0 8.0 0.00 0.00 0.00 46 1011.4
20260504220004 78 148 3.0 7.0 0.00 0.00 0.00 46 1011.5
20260504215503 77 76 0.0 9.0 0.00 0.00 0.00 47 1011.6
20260504215005 77 140 2.0 9.0 0.00 0.00 0.00 44 1011.6
20260504214504 77 178 2.0 8.0 0.00 0.00 0.00 43 1011.6
20260504214004 77 146 1.0 8.0 0.00 0.00 0.00 48 1011.7
20260504213503 77 144 1.0 7.0 0.00 0.00 0.00 44 1011.7
20260504213006 77 123 3.0 8.0 0.00 0.00 0.00 47 1011.8
20260504212504 76 120 1.0 10.0 0.00 0.00 0.00 48 1011.8
20260504212007 77 130 4.0 10.0 0.00 0.00 0.00 44 1011.7
20260504211503 77 137 2.0 7.0 0.00 0.00 0.00 47 1011.7
20260504211002 77 160 2.0 8.0 0.00 0.00 0.00 48 1011.8
20260504210503 76 55 2.0 8.0 0.00 0.00 0.00 44 1011.8
20260504210007 76 178 3.0 7.0 0.00 0.00 0.00 49 1011.8
20260504205503 76 85 1.0 6.0 0.00 0.00 0.00 50 1011.9
20260504205002 76 51 2.0 6.0 0.00 0.00 0.00 46 1011.8
20260504204505 75 71 1.0 10.0 0.00 0.00 0.00 50 1011.9
20260504204002 75 120 1.0 10.0 0.00 0.00 0.00 49 1011.9
20260504203502 75 54 4.0 10.0 0.00 0.00 0.00 45 1012.0
20260504203002 75 360 2.0 7.0 0.00 0.00 0.00 47 1012.0
20260504202503 75 93 1.0 6.0 0.00 0.00 0.00 46 1012.0
20260504202003 75 193 3.0 5.0 0.00 0.00 0.00 48 1011.9
20260504201503 74 158 1.0 7.0 0.00 0.00 0.00 50 1012.0
20260504201004 74 162 3.0 10.0 0.00 0.00 0.00 46 1012.0
20260504200503 74 76 2.0 10.0 0.00 0.00 0.00 49 1012.1
20260504200008 74 146 2.0 5.0 0.00 0.00 0.00 47 1012.1
20260504195506 74 137 1.0 4.0 0.00 0.00 0.00 43 1012.1
20260504195002 74 291 1.0 5.0 0.00 0.00 0.00 49 1012.1
20260504194507 74 117 1.0 5.0 0.00 0.00 0.00 48 1012.0
20260504194003 73 265 1.0 9.0 0.00 0.00 0.00 53 1012.0
20260504193503 73 170 3.0 9.0 0.00 0.00 0.00 47 1012.0
20260504193009 73 164 4.0 9.0 0.00 0.00 0.00 53 1012.0
20260504192502 73 115 2.0 8.0 0.00 0.00 0.00 52 1012.1
20260504192005 73 148 3.0 11.0 0.00 0.00 0.00 46 1012.1
20260504191502 73 178 3.0 11.0 0.00 0.00 0.00 50 1012.0
20260504191002 73 156 2.0 9.0 0.00 0.00 0.00 47 1012.1
20260504190502 74 153 2.0 8.0 0.00 0.00 0.00 53 1012.2
20260504190007 73 93 1.0 8.0 0.00 0.00 0.00 47 1012.2
20260504185501 74 153 3.0 6.0 0.00 0.00 0.00 46 1012.3
20260504185002 73 68 1.0 4.0 0.00 0.00 0.00 55 1012.2
20260504184504 73 319 0.0 7.0 0.00 0.00 0.00 50 1012.3
20260504184004 72 146 2.0 7.0 0.00 0.00 0.00 51 1012.4
20260504183502 72 160 2.0 8.0 0.00 0.00 0.00 50 1012.3
20260504183006 71 141 2.0 8.0 0.00 0.00 0.00 53 1012.4
20260504182501 71 93 3.0 8.0 0.00 0.00 0.00 48 1012.3
20260504182002 71 140 4.0 7.0 0.00 0.00 0.00 50 1012.3
20260504181503 72 126 3.0 6.0 0.00 0.00 0.00 51 1012.3
20260504181002 72 200 2.0 6.0 0.00 0.00 0.00 53 1012.3
20260504180504 71 93 1.0 6.0 0.00 0.00 0.00 53 1012.2
20260504180004 71 68 1.0 5.0 0.00 0.00 0.00 60 1012.1
20260504175502 71 265 2.0 7.0 0.00 0.00 0.00 60 1012.0
20260504175003 70 178 2.0 7.0 0.00 0.00 0.00 55 1012.1
20260504174503 70 161 3.0 9.0 0.00 0.00 0.00 57 1012.0
20260504174005 70 133 4.0 9.0 0.00 0.00 0.00 56 1012.0
20260504173502 70 126 1.0 7.0 0.00 0.00 0.00 59 1012.0
20260504173002 69 184 3.0 7.0 0.00 0.00 0.00 56 1011.9
20260504172502 69 178 2.0 6.0 0.00 0.00 0.00 54 1012.0
20260504172009 69 151 2.0 7.0 0.00 0.00 0.00 56 1012.1
20260504171507 69 153 2.0 8.0 0.00 0.00 0.00 61 1012.0
20260504171010 69 162 5.0 8.0 0.00 0.00 0.00 56 1012.1
20260504170502 69 178 4.0 7.0 0.00 0.00 0.00 56 1012.2
20260504151009 52 51 1.0 2.0 0.00 0.00 0.00 95 1011.8
20260504150510 51 61 1.0 3.0 0.00 0.00 0.00 95 1011.7
20260504141009 48 46 0.0 2.0 0.00 0.00 0.00 93 1011.2
20260504140508 48 93 0.0 2.0 0.00 0.00 0.00 93 1011.2
20260504130503 48 9 0.0 1.0 0.00 0.00 0.00 93 1011.0
20260504110502 49 51 0.0 2.0 0.00 0.00 0.00 91 1011.0
20260504100502 49 9 0.0 1.0 0.00 0.00 0.00 90 1011.0
20260504082003 51 309 0.0 2.0 0.00 0.00 0.00 86 1011.0
20260504081521 51 309 0.0 1.0 0.00 0.00 0.00 86 1011.0
20260504081003 52 51 0.0 1.0 0.00 0.00 0.00 85 1011.0
20260504080503 52 51 0.0 1.0 0.00 0.00 0.00 85 1011.1
20260504050503 59 51 0.0 1.0 0.00 0.00 0.00 68 1011.2
20260504050002 59 9 0.0 1.0 0.00 0.00 0.00 67 1011.2
20260504045502 60 51 0.0 1.0 0.00 0.00 0.00 66 1011.2
20260504045002 60 325 0.0 1.0 0.00 0.00 0.00 65 1011.3
20260504044503 61 265 0.0 1.0 0.00 0.00 0.00 64 1011.2
20260504044002 61 51 0.0 1.0 0.00 0.00 0.00 64 1011.1
20260504043502 62 309 0.0 1.0 0.00 0.00 0.00 63 1011.1
20260504043003 62 319 0.0 2.0 0.00 0.00 0.00 61 1011.0
20260504042503 63 93 0.0 2.0 0.00 0.00 0.00 60 1011.1
20260504042003 63 51 0.0 1.0 0.00 0.00 0.00 57 1011.0
20260504041505 64 265 0.0 1.0 0.00 0.00 0.00 57 1011.1
20260504041003 64 9 0.0 1.0 0.00 0.00 0.00 56 1011.1
20260504040503 65 309 0.0 1.0 0.00 0.00 0.00 55 1011.1
20260504040006 65 9 0.0 1.0 0.00 0.00 0.00 54 1011.1
20260504035504 66 93 0.0 1.0 0.00 0.00 0.00 53 1010.9
20260504035004 66 309 0.0 1.0 0.00 0.00 0.00 53 1010.8
20260504034505 67 291 0.0 1.0 0.00 0.00 0.00 51 1010.9
20260504034002 67 51 0.0 1.0 0.00 0.00 0.00 50 1010.8
20260504033502 67 51 0.0 2.0 0.00 0.00 0.00 50 1010.7
20260504033002 68 309 1.0 2.0 0.00 0.00 0.00 47 1010.7
20260504032503 69 282 0.0 2.0 0.00 0.00 0.00 47 1010.6
20260504032005 69 9 0.0 2.0 0.00 0.00 0.00 46 1010.6
20260504031504 70 265 0.0 2.0 0.00 0.00 0.00 46 1010.6
20260504031003 70 292 0.0 1.0 0.00 0.00 0.00 43 1010.7
20260504030504 70 93 0.0 1.0 0.00 0.00 0.00 43 1010.7
20260504030003 70 9 0.0 4.0 0.00 0.00 0.00 44 1010.7
20260504025504 71 9 1.0 4.0 0.00 0.00 0.00 44 1010.8
20260504025004 71 51 0.0 4.0 0.00 0.00 0.00 44 1010.8
20260504024507 71 279 0.0 3.0 0.00 0.00 0.00 45 1010.8
20260504024004 71 225 0.0 4.0 0.00 0.00 0.00 44 1010.8
20260504023503 72 51 0.0 4.0 0.00 0.00 0.00 43 1010.7
20260504023004 72 9 0.0 3.0 0.00 0.00 0.00 43 1010.7
20260504022503 72 76 0.0 3.0 0.00 0.00 0.00 43 1010.7
20260504022004 73 309 0.0 3.0 0.00 0.00 0.00 44 1010.8
20260504021504 73 41 0.0 4.0 0.00 0.00 0.00 42 1010.8
20260504021003 73 49 1.0 5.0 0.00 0.00 0.00 42 1010.9
20260504020502 73 93 0.0 5.0 0.00 0.00 0.00 42 1010.9
20260504020006 74 239 2.0 5.0 0.00 0.00 0.00 42 1010.9
20260504015502 74 34 1.0 5.0 0.00 0.00 0.00 43 1010.9
20260504015004 74 31 1.0 3.0 0.00 0.00 0.00 42 1011.0
20260504014504 75 61 0.0 4.0 0.00 0.00 0.00 43 1011.0
20260504014003 75 316 0.0 5.0 0.00 0.00 0.00 43 1011.0
20260504013505 75 34 1.0 5.0 0.00 0.00 0.00 42 1011.0
20260504013004 75 43 0.0 3.0 0.00 0.00 0.00 43 1011.0
20260504012508 75 51 1.0 3.0 0.00 0.00 0.00 44 1011.0
20260504012015 75 93 0.0 5.0 0.00 0.00 0.00 44 1011.1
20260504011522 75 51 1.0 5.0 0.00 0.00 0.00 43 1011.1
20260504011008 76 9 2.0 6.0 0.00 0.00 0.00 43 1011.2
20260504010508 76 265 0.0 6.0 0.00 0.00 0.00 43 1011.3
20260504010023 76 178 0.0 4.0 0.00 0.00 0.00 44 1011.3
20260504005507 76 44 1.0 10.0 0.00 0.00 0.00 44 1011.4
20260504005009 76 38 1.0 10.0 0.00 0.00 0.00 44 1011.4
20260504004522 77 178 1.0 6.0 0.00 0.00 0.00 44 1011.4
20260504004011 77 51 1.0 6.0 0.00 0.00 0.00 45 1011.4
20260504003512 78 93 2.0 6.0 0.00 0.00 0.00 46 1011.4
20260504003020 78 247 1.0 12.0 0.00 0.00 0.00 44 1011.4
20260504002506 78 33 4.0 12.0 0.00 0.00 0.00 45 1011.4
20260504002010 78 15 1.0 8.0 0.00 0.00 0.00 45 1011.4
20260504001522 78 247 2.0 9.0 0.00 0.00 0.00 44 1011.5
20260504001008 79 40 3.0 9.0 0.00 0.00 0.00 43 1011.5
20260504000508 79 270 1.0 7.0 0.00 0.00 0.00 44 1011.6
20260504000025 79 24 1.0 6.0 0.00 0.00 0.00 45 1011.6
20260503235508 79 9 1.0 4.0 0.00 0.00 0.00 44 1011.7
20260503235007 79 298 1.0 7.0 0.00 0.00 0.00 43 1011.7
20260503234537 80 34 3.0 7.0 0.00 0.00 0.00 41 1011.7
20260503234011 80 325 2.0 5.0 0.00 0.00 0.00 44 1011.7
20260503233510 80 255 1.0 4.0 0.00 0.00 0.00 44 1011.7
20260503233027 80 51 1.0 6.0 0.00 0.00 0.00 42 1011.8
20260503232509 80 26 3.0 6.0 0.00 0.00 0.00 43 1011.9
20260503232010 80 334 1.0 10.0 0.00 0.00 0.00 44 1011.9
20260503231522 80 309 3.0 10.0 0.00 0.00 0.00 43 1012.0
20260503231013 80 338 3.0 9.0 0.00 0.00 0.00 41 1012.0
20260503230512 80 56 1.0 6.0 0.00 0.00 0.00 42 1012.1
20260503230005 80 16 3.0 6.0 0.00 0.00 0.00 42 1012.2
20260503225503 80 80 2.0 5.0 0.00 0.00 0.00 41 1012.3
20260503225004 80 47 1.0 7.0 0.00 0.00 0.00 43 1012.3